User: anonymous   Login
Location: Alladorf
(49.9620°N, 11.3790°E)
Time: 08:32:51
(UTC+00:00)
Language:

Cosmos 1844 Rocket - Orbit

View from above orbital plane
View from above orbital plane
View from above satellite
View from above satellite

Ground track
Ground track

The orbit data is extracted from the following two-line orbital elements,

1 17974U 87041B   21065.85354978  .00000153  00000-0  99556-4 0  9998
2 17974  71.0070 287.1900 0012119 124.2065 247.1381 14.17275830748964
Epoch (UTC): 06 March 2021 20:29:06
Eccentricity: 0.0012119
inclination: 71.0070°
perigee height: 826 km
apogee height: 843 km
right ascension of ascending node: 287.1900°
argument of perigee: 124.2065°
revolutions per day: 14.17275830
mean anomaly at epoch: 247.1381°
orbit number at epoch: 74896

The dashed part of the orbit path shows where the satellite is in the earth's shadow,  

DLR